DW4360 Weather Reports


time (UTC)temp
C
wind
direction
speed
KPH
gust
KPH
rain 1hr
cm
rain 24hr
cm
rain mn
cm
humidity
%
barometer
mb
20260506140823 13 324 0.0 0.0 0.00 0.00 0.00 85 1018.7
20260506135822 13 323 0.0 0.0 0.00 0.00 0.00 85 1018.9
20260506134821 13 323 0.0 0.0 0.00 0.00 0.00 85 1018.7
20260506133820 13 323 0.0 0.0 0.00 0.00 0.00 85 1018.6
20260506132819 13 323 0.0 0.0 0.00 0.00 0.00 86 1018.7
20260506131818 13 323 0.0 0.0 0.00 0.00 0.00 85 1018.5
20260506130817 13 323 0.0 0.0 0.00 0.00 0.00 85 1018.3
20260506124815 13 323 0.0 0.0 0.00 0.00 0.00 85 1018.2
20260506123814 13 323 0.0 0.0 0.00 0.00 0.00 85 1018.1
20260506122813 13 323 0.0 0.0 0.00 0.00 0.00 84 1018.2
20260506121812 13 324 0.0 0.0 0.00 0.00 0.00 84 1018.3
20260506120811 13 324 0.0 0.0 0.00 0.00 0.00 84 1018.2
20260506114809 13 323 6.4 0.0 0.00 0.00 0.00 84 1018.0
20260506113808 13 315 0.0 0.0 0.00 0.00 0.00 83 1017.9
20260506111806 13 323 0.0 0.0 0.00 0.00 0.00 83 1017.8
20260506110805 14 319 0.0 0.0 0.00 0.00 0.00 82 1017.6
20260506105804 14 316 3.2 0.0 0.00 0.00 0.00 82 1017.5
20260506103802 14 313 0.0 0.0 0.00 0.00 0.00 81 1017.2
20260506102801 14 323 0.0 0.0 0.00 0.00 0.00 82 1017.2
20260506100759 14 324 0.0 0.0 0.00 0.00 0.00 81 1016.9
20260506095758 14 324 0.0 0.0 0.00 0.00 0.00 81 1016.9
20260506094757 14 326 0.0 0.0 0.00 0.00 0.00 81 1016.8
20260506093756 14 326 0.0 0.0 0.00 0.00 0.00 81 1016.8
20260506091754 15 322 0.0 0.0 0.00 0.00 0.00 80 1016.7
20260506090753 15 322 0.0 0.0 0.00 0.00 0.00 80 1016.6
20260506085752 15 323 0.0 0.0 0.00 0.00 0.00 80 1016.6
20260506084751 15 323 0.0 0.0 0.00 0.00 0.00 80 1016.6
20260506083750 15 321 0.0 0.0 0.00 0.00 0.00 80 1016.6
20260506080747 15 323 0.0 0.0 0.00 0.00 0.00 80 1016.5
20260506072743 15 325 0.0 0.0 0.00 0.00 0.00 81 1016.1
20260506071742 15 325 0.0 0.0 0.00 0.00 0.00 81 1016.1
20260506070741 15 325 0.0 0.0 0.00 0.00 0.00 81 1016.1
20260506061735 15 325 0.0 0.0 0.00 0.00 0.00 83 1015.8
20260506060734 15 325 0.0 0.0 0.00 0.00 0.00 83 1015.7
20260506044726 15 325 0.0 0.0 0.00 0.00 0.00 84 1015.3
20260506043726 15 325 0.0 0.0 0.00 0.00 0.00 84 1015.2
20260506042724 15 325 0.0 0.0 0.00 0.00 0.00 83 1015.1
20260506040722 15 325 0.0 0.0 0.00 0.00 0.00 81 1014.9
20260506035721 15 325 0.0 0.0 0.00 0.00 0.00 80 1014.8
20260506034720 16 325 0.0 0.0 0.00 0.00 0.00 79 1014.5
20260506033720 16 325 0.0 0.0 0.00 0.00 0.00 77 1014.4
20260506031717 16 325 0.0 0.0 0.00 0.00 0.00 75 1014.4
20260506030716 17 325 0.0 0.0 0.00 0.00 0.00 73 1014.3
20260506024714 17 325 0.0 0.0 0.00 0.00 0.00 73 1014.0
20260506023713 17 325 0.0 0.0 0.00 0.00 0.00 72 1014.0
20260506022712 17 325 0.0 0.0 0.00 0.00 0.00 71 1014.0
20260506020710 17 327 0.0 0.0 0.00 0.00 0.00 71 1014.0
20260506015709 17 327 0.0 0.0 0.00 0.00 0.00 71 1014.0
20260506014708 17 327 0.0 0.0 0.00 0.00 0.00 71 1014.0
20260506013707 17 327 0.0 0.0 0.00 0.00 0.00 70 1014.1
20260506012706 17 327 0.0 0.0 0.00 0.00 0.00 69 1014.0
20260506011705 17 323 0.0 0.0 0.00 0.00 0.00 70 1014.0
20260506005703 18 322 0.0 0.0 0.00 0.00 0.00 70 1014.1
20260506004702 18 322 0.0 0.0 0.00 0.00 0.00 70 1014.2
20260506003701 18 321 0.0 0.0 0.00 0.00 0.00 71 1014.2
20260506002700 18 325 0.0 0.0 0.00 0.00 0.00 70 1014.2
20260506001659 18 325 0.0 0.0 0.00 0.00 0.00 70 1014.2
20260506000658 18 325 0.0 0.0 0.00 0.00 0.00 70 1014.3
20260505235657 18 325 0.0 0.0 0.00 0.00 0.00 70 1014.4
20260505234656 18 325 0.0 0.0 0.00 0.00 0.00 71 1014.5
20260505233655 18 330 0.0 0.0 0.00 0.00 0.00 71 1014.6
20260505232654 18 329 4.8 0.0 0.00 0.00 0.00 71 1014.6
20260505231653 18 327 0.0 0.0 0.00 0.00 0.00 70 1014.7
20260505230652 18 329 0.0 0.0 0.00 0.00 0.00 70 1014.7
20260505225651 18 329 0.0 0.0 0.00 0.00 0.00 72 1014.7
20260505224650 17 332 6.4 0.0 0.00 0.00 0.00 72 1014.8
20260505223649 17 345 0.0 0.0 0.00 0.00 0.00 73 1014.9
20260505222648 17 344 0.0 0.0 0.00 0.00 0.00 74 1014.9
20260505221647 17 322 0.0 0.0 0.00 0.00 0.00 74 1015.0
20260505220646 17 330 0.0 0.0 0.00 0.00 0.00 74 1015.0
20260505215645 17 330 0.0 0.0 0.00 0.00 0.00 73 1015.1
20260505213642 17 329 0.0 0.0 0.00 0.00 0.00 74 1015.1
20260505212641 17 329 0.0 0.0 0.00 0.00 0.00 74 1015.2
20260505211640 17 329 0.0 0.0 0.00 0.00 0.00 75 1015.2
20260505210639 17 332 0.0 0.0 0.00 0.00 0.00 73 1015.2
20260505205639 17 336 3.2 0.0 0.00 0.00 0.00 74 1015.3
20260505204638 17 323 0.0 0.0 0.00 0.00 0.00 73 1015.4
20260505203637 17 323 0.0 0.0 0.00 0.00 0.00 74 1015.4
20260505202635 17 323 0.0 0.0 0.00 0.00 0.00 73 1015.5
20260505201635 17 325 0.0 0.0 0.00 0.00 0.00 72 1015.4
20260505200633 17 326 6.4 0.0 0.00 0.00 0.00 71 1015.5
20260505195633 17 211 0.0 0.0 0.00 0.00 0.00 70 1015.5
20260505194631 17 211 1.6 0.0 0.00 0.00 0.00 72 1015.5
20260505192629 17 207 0.0 0.0 0.00 0.00 0.00 71 1015.6
20260505191628 17 207 0.0 0.0 0.00 0.00 0.00 71 1015.6
20260505190628 17 279 0.0 0.0 0.00 0.00 0.00 72 1015.6
20260505184625 16 279 0.0 0.0 0.00 0.00 0.00 75 1015.6
20260505183624 16 236 0.0 0.0 0.00 0.00 0.00 76 1015.8
20260505182623 16 236 0.0 0.0 0.00 0.00 0.00 76 1015.8
20260505181622 15 236 0.0 0.0 0.00 0.00 0.00 78 1015.7
20260505180621 15 236 0.0 0.0 0.00 0.00 0.00 77 1015.6
20260505175620 15 236 0.0 0.0 0.00 0.00 0.00 79 1015.6
20260505173619 15 236 0.0 0.0 0.00 0.00 0.00 77 1015.6
20260505172617 15 232 0.0 0.0 0.00 0.00 0.00 79 1015.6
20260505171616 15 232 0.0 0.0 0.00 0.00 0.00 79 1015.4
20260505170615 15 233 0.0 0.0 0.00 0.00 0.00 79 1015.3
20260505165614 15 233 0.0 0.0 0.00 0.00 0.00 79 1015.3
20260505164613 15 195 0.0 0.0 0.00 0.00 0.00 80 1015.3
20260505163612 14 265 0.0 0.0 0.00 0.00 0.00 79 1015.2
20260505162611 14 217 0.0 0.0 0.00 0.00 0.00 79 1015.2
20260505161610 14 217 0.0 0.0 0.00 0.00 0.00 81 1015.1
20260505160609 14 217 0.0 0.0 0.00 0.00 0.00 81 1015.1
20260505152605 13 217 0.0 0.0 0.00 0.00 0.00 84 1015.0
20260505150603 13 217 0.0 0.0 0.00 0.00 0.00 85 1015.0